Overview Statistics Trail Chart Weather Telemetry Raw packets
 

This is the latest recevied weather packets stored in our database for station/object DL2AKT-20. If no packets are shown the sender has not sent any weather packets the latest 10 day(s).

<< 5 6 7 8 9 10 11 >>
Time Temp. Humidity Pressure Rain* Wind** Luminosity Snow
1777896174 25.56° C 32% 1016.5 hPa - - - -
1777895274 25° C 33% 1016.6 hPa - - - -
1777894374 25° C 34% 1016.7 hPa - - - -
1777893474 24.44° C 34% 1016.7 hPa - - - -
1777892574 23.89° C 34% 1016.8 hPa - - - -
1777891674 23.89° C 35% 1016.9 hPa - - - -
1777890773 23.33° C 35% 1017.1 hPa - - - -
1777889876 23.33° C 35% 1017.2 hPa - - - -
1777888976 22.78° C 36% 1017.3 hPa - - - -
1777888076 22.22° C 37% 1017.5 hPa - - - -
1777887176 21.67° C 36% 1017.6 hPa - - - -
1777886276 21.67° C 37% 1017.7 hPa - - - -
1777885376 21.11° C 37% 1017.8 hPa - - - -
1777884475 21.11° C 37% 1017.7 hPa - - - -
1777883575 21.11° C 37% 1017.7 hPa - - - -
1777882675 20.56° C 37% 1017.6 hPa - - - -
1777881775 21.11° C 38% 1017.6 hPa - - - -
1777880875 20.56° C 38% 1017.6 hPa - - - -
1777879975 20° C 38% 1017.4 hPa - - - -
1777879075 20° C 39% 1017.3 hPa - - - -
1777878175 20° C 40% 1017.2 hPa - - - -
1777877274 19.44° C 39% 1017.2 hPa - - - -
1777876374 19.44° C 40% 1017.1 hPa - - - -
1777875474 19.44° C 39% 1017.1 hPa - - - -
1777874574 19.44° C 39% 1017 hPa - - - -

* Rain since midnight (hover to see other rain measurements)
** Current wind speed in m/s (hover to see current wind gust speed)